Strona główna
METAR-TAF:

METAR-TAF

Lotnisko :

Turyn, Włochy

Szerokość geograficzna: 45-05-20N, Długość geograficzna: 007-36-20E, wysokość: 288 m

Aktualna obserwacja pogody

Raport powstał 1 godzina i 4 minut temu, godzina 07:50 UTC
Wiatr 6 kt od wschodnio-północny wschód, zmienny między północ i wschód
Temperatura 19°C
Wilgotność 56%
Ciśnienie 1025 hPa
Widzialność 10 km lub więcej
Brak chmur poniżej 1500 m i brak chmur cumulonimbus

METAR: LIMA 280750Z 07006KT 350V100 CAVOK 19/10 Q1025

czas: 10:54 (08:54 UTC)


TAF: brakujący

Obserwacja i prognoza pogody dla ponad 4000 lotnisk (raport METAR i TAF).

Dostępne stacje oznaczono żółtymi i czerwonymi punktami na mapie.

Najedź kursorem aby zobaczyć nazwę stacji.

Kliknij aby zobaczyć obserwacje i prognozy pogody.

Aby zmienić mapę: kliknij na zielony przycisk z czarnym krzyżykiem, aby powiększyć; na zielony przycisk z myślnikiem, aby pomniejszyć; na zielone strzałki, aby przejść do map sąsiednich.


METAR-TAF: